Location: Aressy
(43.2833°N, 0.3167°W)
Time: 01:00:08
(UTC+00:00)

USA 290 - Pass Details

Date: 28 January 2021
Orbit: 397 x 414 km, 73.6° (Epoch: 27 January)

Event Time Altitude Azimuth Distance (km) Brightness Sun altitude
Rises 18:51:03 0° 333° (NNW) 2,314 6.3 -18.8°
Reaches altitude 10° 18:53:08 10° 327° (NNW) 1,451 5.3 -19.2°
Maximum altitude 18:56:10 44° 253° (WSW) 561 3.3 -19.7°
Drops below altitude 10° 18:59:12 10° 180° (S) 1,441 5.0 -20.3°
Sets 19:01:16 0° 173° (S) 2,296 6.0 -20.6°
